| time (UTC) | temp F | wind direction | speed MPH | gust MPH | rain 1hr in | rain 24hr in | rain mn in | humidity % | barometer mb |
| 20260502170109 | 56 | 269 | 1.0 | 4.0 | 0.00 | 0.11 | 0.00 | 76 | 1012.8 |
| 20260502163119 | 56 | 250 | 1.0 | 6.0 | 0.00 | 0.19 | 0.00 | 74 | 1012.8 |
| 20260502161513 | 57 | 225 | 2.0 | 8.0 | 0.00 | 0.19 | 0.00 | 72 | 1012.8 |
| 20260502151622 | 58 | 260 | 2.0 | 8.0 | 0.00 | 0.19 | 0.00 | 73 | 1012.9 |
| 20260502150124 | 58 | 243 | 3.0 | 7.0 | 0.00 | 0.19 | 0.00 | 73 | 1013.0 |
| 20260502123119 | 60 | 237 | 1.0 | 8.0 | 0.00 | 0.20 | 0.00 | 74 | 1013.5 |
| 20260502121527 | 61 | 186 | 5.0 | 13.0 | 0.00 | 0.20 | 0.00 | 73 | 1013.3 |
| 20260502120147 | 62 | 232 | 5.0 | 8.0 | 0.00 | 0.20 | 0.00 | 75 | 1013.4 |
| 20260502114513 | 60 | 190 | 5.0 | 10.0 | 0.00 | 0.20 | 0.00 | 73 | 1013.5 |
| 20260502113049 | 59 | 240 | 2.0 | 7.0 | 0.00 | 0.20 | 0.00 | 75 | 1013.5 |
| 20260502111544 | 61 | 253 | 4.0 | 9.0 | 0.00 | 0.20 | 0.00 | 73 | 1013.6 |
| 20260502110012 | 60 | 228 | 5.0 | 11.0 | 0.00 | 0.20 | 0.00 | 74 | 1013.7 |
| 20260502104539 | 59 | 257 | 2.0 | 8.0 | 0.00 | 0.20 | 0.00 | 77 | 1013.8 |
| 20260502103108 | 59 | 244 | 3.0 | 9.0 | 0.00 | 0.20 | 0.00 | 76 | 1013.9 |
| 20260502101605 | 58 | 227 | 2.0 | 8.0 | 0.00 | 0.20 | 0.00 | 80 | 1014.0 |
| 20260502091504 | 56 | 311 | 3.0 | 9.0 | 0.00 | 0.20 | 0.00 | 83 | 1014.1 |
| 20260502070129 | 51 | 323 | 2.0 | 8.0 | 0.00 | 0.20 | 0.00 | 92 | 1014.0 |
| 20260502064604 | 50 | 343 | 3.0 | 6.0 | 0.00 | 0.20 | 0.00 | 93 | 1014.0 |
| 20260502063117 | 49 | 311 | 1.0 | 4.0 | 0.00 | 0.20 | 0.00 | 93 | 1014.0 |
| 20260502061503 | 48 | 303 | 1.0 | 4.0 | 0.00 | 0.20 | 0.00 | 93 | 1013.9 |
| 20260502060139 | 47 | 332 | 2.0 | 3.0 | 0.00 | 0.20 | 0.00 | 92 | 1013.9 |
| 20260502054527 | 47 | 319 | 1.0 | 4.0 | 0.00 | 0.20 | 0.00 | 92 | 1013.9 |
| 20260502053107 | 47 | 341 | 1.0 | 4.0 | 0.00 | 0.20 | 0.00 | 92 | 1013.8 |
| 20260502051545 | 47 | 346 | 1.0 | 3.0 | 0.00 | 0.20 | 0.00 | 91 | 1013.8 |
| 20260502050005 | 47 | 315 | 0.0 | 0.0 | 0.00 | 0.20 | 0.00 | 91 | 1013.7 |
| 20260502044543 | 47 | 315 | 0.0 | 1.0 | 0.00 | 0.20 | 0.00 | 90 | 1013.7 |
| 20260502043109 | 48 | 315 | 0.0 | 4.0 | 0.00 | 0.20 | 0.00 | 90 | 1013.8 |
| 20260502041505 | 49 | 309 | 1.0 | 3.0 | 0.00 | 0.20 | 0.00 | 90 | 1013.7 |
| 20260502040002 | 49 | 302 | 1.0 | 4.0 | 0.00 | 0.20 | 0.00 | 90 | 1013.8 |
| 20260502034531 | 49 | 303 | 1.0 | 3.0 | 0.00 | 0.20 | 0.00 | 91 | 1013.9 |
| 20260502033106 | 49 | 317 | 1.0 | 4.0 | 0.00 | 0.20 | 0.00 | 91 | 1014.1 |
| 20260502031555 | 48 | 315 | 2.0 | 6.0 | 0.00 | 0.20 | 0.00 | 90 | 1014.2 |
| 20260502030119 | 49 | 355 | 3.0 | 6.0 | 0.00 | 0.20 | 0.00 | 89 | 1014.3 |
| 20260502024602 | 49 | 335 | 2.0 | 5.0 | 0.00 | 0.20 | 0.00 | 89 | 1014.4 |
| 20260502023121 | 50 | 331 | 1.0 | 9.0 | 0.00 | 0.20 | 0.00 | 89 | 1014.4 |
| 20260502021522 | 50 | 327 | 2.0 | 5.0 | 0.00 | 0.20 | 0.00 | 89 | 1014.5 |
| 20260502020140 | 50 | 306 | 2.0 | 6.0 | 0.00 | 0.20 | 0.00 | 89 | 1014.6 |
| 20260502014532 | 50 | 302 | 3.0 | 6.0 | 0.00 | 0.20 | 0.00 | 88 | 1014.9 |
| 20260502013004 | 51 | 331 | 1.0 | 8.0 | 0.00 | 0.20 | 0.00 | 88 | 1015.1 |
| 20260502011540 | 51 | 248 | 3.0 | 9.0 | 0.00 | 0.20 | 0.00 | 88 | 1015.2 |
| 20260502010003 | 50 | 271 | 2.0 | 6.0 | 0.00 | 0.20 | 0.00 | 88 | 1015.3 |
| 20260502004553 | 51 | 321 | 3.0 | 10.0 | 0.00 | 0.20 | 0.00 | 88 | 1015.3 |
| 20260502003100 | 50 | 256 | 3.0 | 9.0 | 0.00 | 0.20 | 0.00 | 87 | 1015.4 |
| 20260502001603 | 50 | 236 | 5.0 | 9.0 | 0.00 | 0.20 | 0.00 | 86 | 1015.5 |
| 20260502000132 | 50 | 213 | 5.0 | 14.0 | 0.00 | 0.20 | 0.00 | 86 | 1015.5 |
| 20260501234525 | 50 | 252 | 3.0 | 9.0 | 0.00 | 0.20 | 0.00 | 86 | 1015.5 |
| 20260501233006 | 50 | 180 | 4.0 | 10.0 | 0.00 | 0.20 | 0.00 | 86 | 1015.5 |
| 20260501231546 | 50 | 260 | 4.0 | 9.0 | 0.00 | 0.20 | 0.00 | 86 | 1015.5 |
| 20260501230022 | 50 | 213 | 6.0 | 12.0 | 0.00 | 0.20 | 0.00 | 88 | 1015.5 |
| 20260501224550 | 50 | 350 | 6.0 | 14.0 | 0.00 | 0.20 | 0.20 | 89 | 1015.6 |
| 20260501223115 | 51 | 176 | 4.0 | 16.0 | 0.00 | 0.20 | 0.20 | 90 | 1015.6 |
| 20260501221515 | 51 | 225 | 5.0 | 11.0 | 0.00 | 0.20 | 0.20 | 90 | 1015.7 |
| 20260501220002 | 51 | 252 | 9.0 | 16.0 | 0.01 | 0.20 | 0.20 | 90 | 1015.9 |
| 20260501214529 | 52 | 256 | 6.0 | 19.0 | 0.03 | 0.20 | 0.20 | 90 | 1016.0 |
| 20260501213012 | 52 | 252 | 5.0 | 13.0 | 0.06 | 0.20 | 0.20 | 90 | 1016.1 |
| 20260501211547 | 52 | 192 | 6.0 | 13.0 | 0.08 | 0.20 | 0.20 | 90 | 1016.2 |
| 20260501210113 | 52 | 196 | 3.0 | 8.0 | 0.07 | 0.20 | 0.20 | 89 | 1016.2 |
| 20260501204601 | 53 | 226 | 3.0 | 9.0 | 0.05 | 0.17 | 0.17 | 88 | 1016.4 |
| 20260501203126 | 53 | 183 | 5.0 | 10.0 | 0.02 | 0.14 | 0.14 | 86 | 1016.4 |
| 20260501201522 | 53 | 213 | 6.0 | 10.0 | 0.00 | 0.13 | 0.13 | 85 | 1016.4 |
| 20260501200013 | 53 | 224 | 5.0 | 11.0 | 0.00 | 0.13 | 0.13 | 85 | 1016.4 |
| 20260501194547 | 53 | 219 | 4.0 | 9.0 | 0.00 | 0.13 | 0.13 | 85 | 1016.4 |
| 20260501193111 | 53 | 164 | 7.0 | 14.0 | 0.00 | 0.13 | 0.13 | 85 | 1016.4 |
| 20260501191605 | 53 | 244 | 4.0 | 13.0 | 0.00 | 0.13 | 0.13 | 85 | 1016.2 |
| 20260501190143 | 53 | 215 | 6.0 | 13.0 | 0.00 | 0.13 | 0.13 | 86 | 1016.3 |
| 20260501184544 | 53 | 221 | 5.0 | 10.0 | 0.00 | 0.13 | 0.13 | 87 | 1016.2 |
| 20260501183057 | 53 | 205 | 5.0 | 14.0 | 0.02 | 0.13 | 0.13 | 88 | 1016.3 |
| 20260501181553 | 53 | 264 | 5.0 | 9.0 | 0.02 | 0.13 | 0.13 | 89 | 1016.2 |
| 20260501180122 | 53 | 173 | 4.0 | 10.0 | 0.03 | 0.13 | 0.13 | 88 | 1016.3 |
| 20260501174553 | 54 | 215 | 3.0 | 9.0 | 0.07 | 0.13 | 0.13 | 88 | 1016.7 |
| 20260501173117 | 55 | 212 | 2.0 | 4.0 | 0.08 | 0.11 | 0.11 | 88 | 1016.7 |
| 20260501171524 | 55 | 355 | 2.0 | 4.0 | 0.09 | 0.10 | 0.10 | 87 | 1016.5 |